C/2009 F6 (Yi-SWAN) |
Classification: Comet SPK-ID: 1003019 |
[ hide orbit diagram ]
For accurate long-term ephemerides, please instead use our Horizons system.This orbit viewer was implemented using two-body methods, and hence should not be used for determining accurate long-term trajectories (over several years or decades) or planetary encounter circumstances.
Orbital Elements at Epoch 2454972.5 (2009-May-21.0) TDB
Reference: JPL 28 (heliocentric ecliptic J2000)
Element | Value | Uncertainty (1-sigma) | Units |
e | .997512330328695 | 4.2642e-06 | |
a | 512.1897873070631 | 0.87816 | au |
q | 1.27415899983593 | 1.0903e-06 | au |
i | 85.76480576086456 | 3.9619e-05 | deg |
node | 278.6790016737545 | 4.631e-05 | deg |
peri | 129.7722945374815 | 0.00012646 | deg |
M | .001153513663202778 | 2.9757e-06 | deg |
tp | 2454958.933586777743 (2009-May-07.43358678) | 0.00013264 | TDB |
period | 4233940.97166751 11591.90 | 10889 29.81 | d yr |
n | 8.502716556726493E-5 | 2.1867e-07 | deg/d |
Q | 1023.10541561429 | 1.7541 | au |
|
| | Orbit Determination Parameters
Additional Information
|
[ show covariance matrix ]
[ show close-approach data ]
Alternate Designations
Perihelion Year (est.) | New-Style Desig | Roman Numeral | Year/ Letter | 2009.3 | C/2009 F6 | | |
|
|